Location: Balaclava NSW 2575, Australia
(34.4510°S, 150.4953°E)
Time: 05:04:56
(UTC+10:00)

HuskySat-1 - Visible Passes

Search period start: 24 July 2021 00:00
Search period end: 03 August 2021 00:00
Orbit: 448 x 463 km, 51.6° (Epoch: 23 July)

Date Brightness Start Highest point End Pass type
(mag) Time Alt. Az. Time Alt. Az. Time Alt. Az.
27 Jul ? 06:16:43 10° NNE 06:19:05 16° NE 06:21:26 10° E visible
28 Jul ? 05:41:51 10° NNE 05:43:16 12° NE 05:44:42 10° ENE visible
30 Jul ? 06:05:01 10° NW 06:08:38 71° NE 06:12:18 10° SE visible
31 Jul ? 05:29:12 10° NNW 05:32:43 50° NE 05:36:18 10° ESE visible
01 Aug ? 04:56:05 32° NNE 04:56:50 36° NE 05:00:14 10° ESE visible
02 Aug ? 04:22:38 18° E 04:22:38 18° E 04:24:03 10° ESE visible
02 Aug ? 05:56:23 17° W 05:58:28 30° SW 06:01:46 10° SSE visible
